Regional Weather Roundup
Issued by NWS

Home | Current Version | Previous Version | Graphics & Text | Print | Product List | Glossary On
Versions: 1 2 3 4 5 6 7 8 9 10 11 12 13 14 15 16 17 18 19 20 21 22 23 24 25 26 27 28 29 30 31 32 33 34 35 36 37 38 39 40 41 42 43 44 45 46 47 48 49 50
000
ASUS45 KCYS 222210
RWRWY

WYOMING REGIONAL WEATHER ROUNDUP
NATIONAL WEATHER SERVICE CHEYENNE WY
300 PM MST SAT NOV 22 2014

NOTE:  "FAIR" INDICATES FEW OR NO CLOUDS BELOW 12,000 FEET
WITH NO SIGNIFICANT WEATHER AND/OR OBSTRUCTIONS TO VISIBILITY.

WYZ001-222300-
YELLOWSTONE NATIONAL PARK

CITY           SKY/WX    TMP DP  RH WIND       PRES   REMARKS
LK YELLOWSTONE   N/A     30  26  85 W12G18    29.56R WCI  20
W YELLOWSTONE  NOT AVBL

$$
WYZ002>013-054>058-071-098>099-222300-
NORTHERN WYOMING

CITY           SKY/WX    TMP DP  RH WIND       PRES   REMARKS
JACKSON        PTSUNNY   34  32  93 S12G18    29.59R WCI  25
CODY           PTSUNNY   43  32  65 SW23G30   29.41F
GREYBULL       PTSUNNY   42  30  62 NW3       29.45S
WORLAND        MOSUNNY   46  29  51 W6        29.42F
SHERIDAN       PTSUNNY   52  28  39 W17G26    29.37R
BUFFALO        PTSUNNY   49  26  41 SW26G36   29.40S
GILLETTE       CLOUDY    43  30  60 SW26G39   29.38F
HULETT           N/A    N/A N/A N/A MISG        N/A
NEWCASTLE      FAIR      45  28  53 CALM      29.49S

$$
WYZ014>020-022>026-101>103-222300-
CENTRAL WYOMING

CITY           SKY/WX    TMP DP  RH WIND       PRES   REMARKS
BIG PINEY      CLOUDY    49  33  54 MISG      29.66R
PINEDALE       LGT SNOW  32  32 100 W14       29.64R WCI  22
DUBOIS         LGT SNOW  34  27  75 W26G39    29.51R WCI  21
LANDER         NOT AVBL
RIVERTON       MOSUNNY   45  28  51 S13       29.49F
CASPER         CLOUDY    40  30  67 SW29G41   29.55F WCI  29
DOUGLAS        CLOUDY   N/A N/A N/A SW35G48   29.49F

$$
WYZ021-027>030-104>119-222300-
SOUTHERN WYOMING

CITY           SKY/WX    TMP DP  RH WIND       PRES   REMARKS
EVANSTON       LGT SNOW  33  32  96 SW16G28   29.70F VSB 3/4 WCI  23
KEMMERER       LGT SNOW  34  32  93 W41G54    29.67R WCI  18
FORT BRIDGER   RAIN      39  36  91 W22G40    29.69F WCI  28
ROCK SPRINGS   MOSUNNY   38  34  85 SW9       29.66F WCI  31
DIXON          CLOUDY    38  28  66 SW17G25   29.82F WCI  28
RAWLINS        LGT SNOW  33  29  85 SW18      29.70F FOG     WCI  22
SARATOGA       CLOUDY    34  30  86 SW20G31   29.73F WCI  22
LARAMIE        CLOUDY    43  19  38 W22G35    29.65F
CHEYENNE       CLOUDY    51  18  27 W20G29    29.61S
TORRINGTON     CLOUDY    57  23  26 W24G36    29.52S
PINE BLUFFS    FAIR      43  18  36 SW3       29.59S

$$



USA.gov is the U.S. government's official web portal to all federal, state and local government web resources and services.